TimeCOT,TemperatureF,Dew PointF,Humidity,Sea Level PressureIn,VisibilityMPH,Wind Direction,Wind SpeedMPH,Gust SpeedMPH,PrecipitationIn,Events,Conditions,WindDirDegrees,DateUTC
12:00 AM,53.6,53.6,100,30.30,2.5,Variable,2.3,-,N/A,,Mostly Cloudy,0,2012-10-14 05:00:00
1:00 AM,54,52,92,,3,NNW,4.5,,,,Mist,340,2012-10-14 06:00:00
1:00 AM,53.6,51.8,94,30.28,2.5,NNW,4.6,-,N/A,,Mostly Cloudy,340,2012-10-14 06:00:00
1:05 AM,53.6,51.8,94,30.28,2.5,NNW,4.6,-,N/A,,Mostly Cloudy,340,2012-10-14 06:05:00
2:00 AM,51.8,51.8,100,30.26,3.1,WSW,4.6,-,N/A,,Mostly Cloudy,250,2012-10-14 07:00:00
3:00 AM,51.8,51.8,100,30.26,1.9,Variable,2.3,-,N/A,,Mostly Cloudy,0,2012-10-14 08:00:00
4:00 AM,51,50,97,,3,NNW,4.5,,,,Mist,340,2012-10-14 09:00:00
4:00 AM,51.8,51.8,100,30.26,1.9,NNW,3.5,-,N/A,,Mostly Cloudy,340,2012-10-14 09:00:00
5:00 AM,51.8,50.0,94,30.27,1.9,Variable,2.3,-,N/A,,Mostly Cloudy,0,2012-10-14 10:00:00
5:30 AM,51.8,50.0,94,30.29,2.5,WSW,5.8,-,N/A,,Mostly Cloudy,250,2012-10-14 10:30:00
6:00 AM,51.8,51.8,100,30.30,1.9,Variable,2.3,-,N/A,,Mostly Cloudy,0,2012-10-14 11:00:00
7:00 AM,52,51,94,,2,NE,4.5,,,,Mist,50,2012-10-14 12:00:00
7:00 AM,51.8,50.0,94,30.33,2.5,NE,3.5,-,N/A,,Scattered Clouds,50,2012-10-14 12:00:00
7:30 AM,57.2,53.6,88,30.34,3.1,NE,4.6,-,N/A,,Haze,50,2012-10-14 12:30:00
8:00 AM,59.0,53.6,82,30.34,3.1,Variable,2.3,-,N/A,,Haze,0,2012-10-14 13:00:00
9:00 AM,64.4,50.0,59,30.35,3.7,Variable,2.3,-,N/A,,Scattered Clouds,0,2012-10-14 14:00:00
10:00 AM,64,49,48,,5,North,2.2,,,,Haze,10,2012-10-14 15:00:00
10:00 AM,64.4,48.2,56,30.35,5.0,Variable,2.3,-,N/A,,Scattered Clouds,0,2012-10-14 15:00:00
11:00 AM,66.2,50.0,56,30.32,5.0,WSW,4.6,-,N/A,,Mostly Cloudy,240,2012-10-14 16:00:00
12:00 PM,64.4,53.6,68,30.30,5.0,WSW,17.3,-,N/A,,Scattered Clouds,240,2012-10-14 17:00:00
12:25 PM,62.6,53.6,72,30.29,4.3,SW,23.0,-,N/A,Thunderstorm,Thunderstorm,220,2012-10-14 17:25:00
1:00 PM,67,53,52,,9,West,17.9,,,,Haze,280,2012-10-14 18:00:00
1:00 PM,60.8,53.6,77,30.29,4.3,SSW,18.4,-,N/A,Thunderstorm,Thunderstorm,210,2012-10-14 18:00:00
2:00 PM,59.0,51.8,77,30.27,5.0,WSW,13.8,-,N/A,,Scattered Clouds,250,2012-10-14 19:00:00
3:00 PM,62.6,53.6,72,30.23,6.2,West,11.5,-,N/A,,Scattered Clouds,260,2012-10-14 20:00:00
4:00 PM,61,53,67,,6,NNW,8.9,,,,Haze,330,2012-10-14 21:00:00
4:00 PM,60.8,53.6,77,30.24,6.2,NNW,9.2,-,N/A,,Scattered Clouds,330,2012-10-14 21:00:00
5:00 PM,59.0,51.8,77,30.24,6.2,NNW,8.1,-,N/A,,Scattered Clouds,340,2012-10-14 22:00:00
6:00 PM,57.2,51.8,82,30.26,6.2,Variable,2.3,-,N/A,,Scattered Clouds,0,2012-10-14 23:00:00
7:00 PM,54,51,86,,6,NNE,6.7,,,,Haze,20,2012-10-15 00:00:00
7:00 PM,53.6,51.8,94,30.27,6.2,NNE,5.8,-,N/A,,Scattered Clouds,20,2012-10-15 00:00:00
8:00 PM,53.6,50.0,88,30.30,6.2,Variable,2.3,-,N/A,,Scattered Clouds,0,2012-10-15 01:00:00
9:00 PM,51.8,46.4,82,30.32,6.2,Variable,2.3,-,N/A,,Scattered Clouds,0,2012-10-15 02:00:00
10:00 PM,51,50,94,,5,NNW,2.2,,,,Mist,330,2012-10-15 03:00:00
10:00 PM,51.8,50.0,94,30.34,5.0,Variable,2.3,-,N/A,,Mostly Cloudy,0,2012-10-15 03:00:00
11:00 PM,50.0,48.2,94,30.34,3.1,Variable,2.3,-,N/A,,Scattered Clouds,0,2012-10-15 04:00:00